Weather in Zeewolde

Netherlands     52°19′41″N   5°32′10″E
temp.,
°C
wind,
m/s
gust,
m/s
humid.,
%
clouds,
%
prec.,
mm/h
press.,
hPa
HPBL,
m
25 january, tue
tue2501:00+1ne11915 0.0 103510
04:00+1e11929 0.0 103410
07:00+1s019210 0.0 103410
10:00+3ssw1188100 0.0 103487
13:00+5nw0174100 0.0 1034665
16:00+5sw1175100 0.0 103346
19:00+4wsw1176100 0.0 103313
22:00+3wsw2276100 0.0 103331
26 january, wed
wed2601:00+3wsw3477100 0.0 1033137
04:00+3wsw2478100 0.0 1032154
07:00+4ssw3577100 0.0 1031123
10:00+5w3778100 0.0 1032599
13:00+6w4671100 0.0 1031778
16:00+6wsw4679100 0.0 1030457
19:00+3sw41094100 0.0 1029235
22:00+3sw5129645 0.0 1028311
27 january, thu
thu2701:00+4sw6149699 0.0 1027436
04:00+4sw71592100 0.0 1024496
07:00+5wsw81689100 0.0 1022486
10:00+6wsw71492100 0.6 1023650
13:00+7w61393100 0.7 1022790
16:00+8wnw6128497 0.1 1023912
19:00+6wnw61281100 0.1 1024456
22:00+5wnw5128879 0.0 1025369
28 january, fri
fri2801:00+6wnw51286100 0.3 1026550
04:00+5nw612883 0.3 1028564
07:00+4nw49925 0.3 1030252
10:00+4wnw39915 0.0 1032385
13:00+8wnw57695 0.0 10331093
16:00+7wnw4675100 0.0 1033484
19:00+4sw3791100 0.0 1033178
22:00+4sw51188100 0.0 1032418
29 january, sat
sat2901:00+5sw61482100 0.0 1030476
04:00+5sw71687100 0.0 1027498
07:00+7sw71494100 0.0 1025519
10:00+8wsw71591100 0.0 1024693
13:00+10wsw8168130 0.1 1023837
16:00+10w91681100 0.0 10231080
19:00+10wnw8148399 0.0 10241027
22:00+7wnw5119110 0.1 1026349